FW1203 Weather Reports


Display with metric or nautical units.
time (UTC)temp
F
wind
direction
speed
MPH
gust
MPH
rain 1hr
in
rain 24hr
in
rain mn
in
humidity
%
barometer
mb
20260506134833 52 0 0.0 0.0 0.00 0.00 0.00 54 1012.7
20260506134333 52 208 0.0 2.0 0.00 0.00 0.00 54 1012.6
20260506133833 52 208 0.0 2.0 0.00 0.00 0.00 51 1012.5
20260506133333 52 210 0.0 2.0 0.00 0.00 0.00 53 1012.4
20260506132833 51 213 0.0 2.0 0.00 0.00 0.00 53 1012.4
20260506132333 51 0 0.0 0.0 0.00 0.00 0.00 58 1012.3
20260506131833 50 0 0.0 0.0 0.00 0.00 0.00 58 1012.4
20260506131333 50 0 0.0 0.0 0.00 0.00 0.00 60 1012.3
20260506130833 49 0 0.0 0.0 0.00 0.00 0.00 62 1012.3
20260506130333 48 0 0.0 0.0 0.00 0.00 0.00 65 1012.3
20260506125833 47 0 0.0 0.0 0.00 0.00 0.00 67 1012.2
20260506125333 46 0 0.0 0.0 0.00 0.00 0.00 71 1012.2
20260506124833 45 0 0.0 0.0 0.00 0.00 0.00 77 1012.1
20260506124333 45 0 0.0 0.0 0.00 0.00 0.00 81 1012.1
20260506123833 44 0 0.0 0.0 0.00 0.00 0.00 84 1012.0
20260506123333 44 0 0.0 0.0 0.00 0.00 0.00 85 1012.1
20260506122833 43 0 0.0 0.0 0.00 0.00 0.00 86 1012.0
20260506122333 43 0 0.0 0.0 0.00 0.00 0.00 86 1011.8
20260506121833 42 0 0.0 0.0 0.00 0.00 0.00 87 1011.8
20260506121333 42 0 0.0 0.0 0.00 0.00 0.00 87 1011.8
20260506120833 42 0 0.0 0.0 0.00 0.00 0.00 87 1011.8
20260506120333 41 0 0.0 0.0 0.00 0.00 0.00 87 1011.8
20260506115833 41 0 0.0 0.0 0.00 0.00 0.00 87 1011.8
20260506115332 41 0 0.0 0.0 0.00 0.00 0.00 86 1011.8
20260506114833 40 0 0.0 0.0 0.00 0.00 0.00 86 1011.7
20260506114333 40 0 0.0 0.0 0.00 0.00 0.00 86 1011.6
20260506113833 40 0 0.0 0.0 0.00 0.00 0.00 85 1011.6
20260506113333 40 0 0.0 0.0 0.00 0.00 0.00 85 1011.6
20260506112833 40 0 0.0 0.0 0.00 0.00 0.00 84 1011.5
20260506112333 40 0 0.0 0.0 0.00 0.00 0.00 84 1011.5
20260506111833 40 0 0.0 0.0 0.00 0.00 0.00 84 1011.4
20260506111333 40 0 0.0 0.0 0.00 0.00 0.00 83 1011.4
20260506110833 41 0 0.0 0.0 0.00 0.00 0.00 83 1011.3
20260506110333 41 0 0.0 0.0 0.00 0.00 0.00 82 1011.3
20260506105833 41 0 0.0 0.0 0.00 0.00 0.00 81 1011.2
20260506105333 41 0 0.0 0.0 0.00 0.00 0.00 81 1011.1
20260506104833 41 0 0.0 0.0 0.00 0.00 0.00 80 1011.0
20260506104333 41 0 0.0 0.0 0.00 0.00 0.00 80 1010.9
20260506103833 42 0 0.0 0.0 0.00 0.00 0.00 80 1010.7
20260506103332 42 0 0.0 0.0 0.00 0.00 0.00 79 1010.6
20260506102833 42 0 0.0 0.0 0.00 0.00 0.00 79 1010.5
20260506102333 42 0 0.0 0.0 0.00 0.00 0.00 79 1010.5
20260506101833 42 0 0.0 0.0 0.00 0.00 0.00 78 1010.4
20260506101333 42 0 0.0 0.0 0.00 0.00 0.00 78 1010.4
20260506100833 42 0 0.0 0.0 0.00 0.00 0.00 78 1010.6
20260506100333 43 0 0.0 0.0 0.00 0.00 0.00 77 1010.6
20260506095833 43 0 0.0 0.0 0.00 0.00 0.00 77 1010.6
20260506095333 43 0 0.0 0.0 0.00 0.00 0.00 77 1010.6
20260506094833 43 0 0.0 0.0 0.00 0.00 0.00 77 1010.6
20260506094333 43 0 0.0 0.0 0.00 0.00 0.00 76 1010.4
20260506093833 43 0 0.0 0.0 0.00 0.00 0.00 75 1010.6
20260506093333 43 0 0.0 0.0 0.00 0.00 0.00 75 1010.5
20260506092833 43 0 0.0 0.0 0.00 0.00 0.00 73 1010.5
20260506092333 43 0 0.0 0.0 0.00 0.00 0.00 72 1010.4
20260506091833 43 0 0.0 0.0 0.00 0.00 0.00 72 1010.6
20260506091333 44 0 0.0 0.0 0.00 0.00 0.00 71 1010.7
20260506090833 44 0 0.0 0.0 0.00 0.00 0.00 71 1010.9
20260506090333 44 0 0.0 0.0 0.00 0.00 0.00 71 1010.8
20260506085833 44 0 0.0 0.0 0.00 0.00 0.00 70 1010.7
20260506085333 44 0 0.0 0.0 0.00 0.00 0.00 70 1010.5
20260506084833 44 0 0.0 0.0 0.00 0.00 0.00 69 1010.4
20260506083833 45 0 0.0 0.0 0.00 0.00 0.00 68 1010.5
20260506083333 45 0 0.0 0.0 0.00 0.00 0.00 68 1010.4
20260506082833 45 0 0.0 0.0 0.00 0.00 0.00 67 1010.3
20260506082333 46 0 0.0 0.0 0.00 0.00 0.00 66 1010.4
20260506081833 46 0 0.0 0.0 0.00 0.00 0.00 66 1010.4
20260506081333 46 0 0.0 0.0 0.00 0.00 0.00 65 1010.4
20260506080833 46 0 0.0 0.0 0.00 0.00 0.00 65 1010.2
20260506080333 46 0 0.0 0.0 0.00 0.00 0.00 64 1010.1
20260506073333 47 256 0.0 3.0 0.00 0.00 0.00 62 1009.9
20260506072833 47 256 0.0 3.0 0.00 0.00 0.00 62 1009.9
20260506072333 47 255 0.0 2.0 0.00 0.00 0.00 62 1009.9
20260506071833 47 260 0.0 2.0 0.00 0.00 0.00 62 1009.9
20260506071333 47 325 0.0 3.0 0.00 0.00 0.00 64 1009.9
20260506070833 47 260 0.0 3.0 0.00 0.00 0.00 64 1009.9
20260506070333 47 210 0.0 3.0 0.00 0.00 0.00 65 1009.8
20260506062333 48 239 0.0 2.0 0.00 0.00 0.00 64 1010.0
20260506061833 48 25 0.0 4.0 0.00 0.00 0.00 65 1010.0
20260506061333 48 283 0.0 4.0 0.00 0.00 0.00 65 1009.9
20260506060833 48 245 0.0 2.0 0.00 0.00 0.00 64 1010.1
20260506060333 49 266 0.0 2.0 0.00 0.00 0.00 65 1010.1
20260506050833 51 228 0.0 2.0 0.00 0.00 0.00 62 1009.5
20260506050333 51 208 0.0 2.0 0.00 0.00 0.00 62 1009.3
20260506044833 51 0 0.0 0.0 0.00 0.00 0.00 62 1009.3
20260506044333 52 0 0.0 0.0 0.00 0.00 0.00 61 1009.4
20260506043833 52 0 0.0 0.0 0.00 0.00 0.00 60 1009.4
20260506043333 52 0 0.0 0.0 0.00 0.00 0.00 59 1009.4
20260506042833 52 0 0.0 0.0 0.00 0.00 0.00 58 1009.4
20260506042333 52 193 0.0 1.0 0.00 0.00 0.00 59 1009.4
20260506041833 52 193 0.0 1.0 0.00 0.00 0.00 59 1009.3
20260506041333 52 194 0.0 1.0 0.00 0.00 0.00 59 1009.5
20260506040833 52 194 0.0 3.0 0.00 0.00 0.00 58 1009.3
20260506040333 52 167 0.0 3.0 0.00 0.00 0.00 57 1009.2
20260506035833 53 0 0.0 0.0 0.00 0.00 0.00 57 1009.1
20260506035333 53 187 0.0 1.0 0.00 0.00 0.00 55 1009.1
20260506034833 53 187 0.0 1.0 0.00 0.00 0.00 54 1009.2
20260506034333 53 187 0.0 1.0 0.00 0.00 0.00 52 1009.0
20260506033833 52 187 0.0 1.0 0.00 0.00 0.00 52 1008.9
20260506033333 52 189 0.0 1.0 0.00 0.00 0.00 51 1008.7
20260506032833 52 194 0.0 1.0 0.00 0.00 0.00 52 1008.6
20260506032333 52 0 0.0 0.0 0.00 0.00 0.00 54 1008.6
20260506031833 52 0 0.0 0.0 0.00 0.00 0.00 53 1008.7
20260506031333 52 0 0.0 0.0 0.00 0.00 0.00 54 1008.7
20260506030833 53 0 0.0 0.0 0.00 0.00 0.00 54 1008.5
20260506030333 53 0 0.0 0.0 0.00 0.00 0.00 53 1008.6
20260506025833 53 0 0.0 0.0 0.00 0.00 0.00 53 1008.7
20260506025333 53 0 0.0 0.0 0.00 0.00 0.00 51 1008.7
20260506024833 53 0 0.0 0.0 0.00 0.00 0.00 52 1008.7
20260506024333 53 0 0.0 0.0 0.00 0.00 0.00 51 1008.7
20260506023833 53 0 0.0 0.0 0.00 0.00 0.00 50 1008.4
20260506023333 54 0 0.0 0.0 0.00 0.00 0.00 50 1008.4
20260506022833 54 0 0.0 0.0 0.00 0.00 0.00 51 1008.4
20260506022333 54 0 0.0 0.0 0.00 0.00 0.00 50 1008.3
20260506021833 54 0 0.0 0.0 0.00 0.00 0.00 50 1008.3
20260506021333 54 0 0.0 0.0 0.00 0.00 0.00 50 1008.2
20260506020833 54 0 0.0 0.0 0.00 0.00 0.00 50 1008.2
20260506020333 54 0 0.0 0.0 0.00 0.00 0.00 48 1007.9
20260506015833 54 0 0.0 0.0 0.00 0.00 0.00 48 1007.9
20260506015333 54 0 0.0 0.0 0.00 0.00 0.00 48 1008.0
20260506014833 55 0 0.0 0.0 0.00 0.00 0.00 47 1007.9
20260506013833 55 0 0.0 0.0 0.00 0.00 0.00 46 1007.4
20260506013333 55 0 0.0 0.0 0.00 0.00 0.00 47 1007.5
20260506012833 55 0 0.0 0.0 0.00 0.00 0.00 46 1007.5
20260506012333 55 0 0.0 0.0 0.00 0.00 0.00 46 1007.5
20260506011833 55 0 0.0 0.0 0.00 0.00 0.00 46 1007.4
20260506011333 55 0 0.0 0.0 0.00 0.00 0.00 47 1007.2
20260506010833 55 0 0.0 0.0 0.00 0.00 0.00 46 1007.2
20260506010333 55 0 0.0 0.0 0.00 0.00 0.00 46 1007.1
20260506005833 56 0 0.0 0.0 0.00 0.00 0.00 45 1007.1
20260506005333 56 0 0.0 0.0 0.00 0.00 0.00 46 1007.1
20260506004833 56 0 0.0 0.0 0.00 0.00 0.00 46 1007.0
20260506004333 56 0 0.0 0.0 0.00 0.00 0.00 45 1007.0
20260506003833 56 0 0.0 0.0 0.00 0.00 0.00 44 1006.9
20260506003333 56 0 0.0 0.0 0.00 0.00 0.00 44 1006.7
20260506002833 56 0 0.0 0.0 0.00 0.00 0.00 45 1006.8
20260506002333 56 0 0.0 0.0 0.00 0.00 0.00 44 1006.9
20260506001833 57 0 0.0 0.0 0.00 0.00 0.00 44 1007.0
20260506001333 57 0 0.0 0.0 0.00 0.00 0.00 43 1006.9
20260506000833 57 0 0.0 0.0 0.00 0.00 0.00 42 1006.8
20260506000333 57 277 0.0 1.0 0.00 0.00 0.00 42 1006.8
20260505235333 57 278 0.0 2.0 0.00 0.00 0.00 43 1006.8
20260505234833 57 278 0.0 2.0 0.00 0.00 0.00 41 1006.8
20260505234333 57 0 0.0 0.0 0.00 0.00 0.00 43 1006.9
20260505233833 57 0 0.0 0.0 0.00 0.00 0.00 42 1006.9
20260505233333 57 0 0.0 0.0 0.00 0.00 0.00 42 1006.9
20260505232833 57 278 0.0 1.0 0.00 0.00 0.00 42 1006.9
20260505232333 57 278 0.0 2.0 0.00 0.00 0.00 43 1006.9
20260505231833 57 267 0.0 2.0 0.00 0.00 0.00 41 1006.9
20260505231333 58 277 0.0 3.0 0.00 0.00 0.00 42 1007.0
20260505230833 58 280 0.0 3.0 0.00 0.00 0.00 41 1007.0
20260505230333 58 258 1.0 3.0 0.00 0.00 0.00 39 1007.0
20260505225833 58 279 0.0 3.0 0.00 0.00 0.00 40 1007.1
20260505225333 58 26 0.0 3.0 0.00 0.00 0.00 41 1007.3
20260505224833 58 278 0.0 3.0 0.00 0.00 0.00 41 1007.2
20260505224333 58 263 0.0 4.0 0.00 0.00 0.00 41 1007.1
20260505223833 58 262 0.0 4.0 0.00 0.00 0.00 39 1007.1
20260505223333 58 0 0.0 0.0 0.00 0.00 0.00 43 1007.0
20260505222833 58 0 0.0 0.0 0.00 0.00 0.00 43 1007.0
20260505222333 58 0 0.0 0.0 0.00 0.00 0.00 41 1007.0
20260505221833 58 0 0.0 0.0 0.00 0.00 0.00 41 1007.0
20260505221333 58 261 0.0 1.0 0.00 0.00 0.00 41 1007.1
20260505220833 58 261 0.0 1.0 0.00 0.00 0.00 41 1007.2
20260505220333 58 0 0.0 0.0 0.00 0.00 0.00 43 1007.1
20260505215833 58 261 0.0 2.0 0.00 0.00 0.00 40 1007.2
20260505215333 58 261 0.0 2.0 0.00 0.00 0.00 39 1007.1
20260505214833 58 259 0.0 3.0 0.00 0.00 0.00 40 1007.0
20260505214333 58 259 0.0 3.0 0.00 0.00 0.00 40 1007.0
20260505213832 59 258 0.0 3.0 0.00 0.00 0.00 40 1007.0
20260505213333 59 259 0.0 3.0 0.00 0.00 0.00 39 1007.0
20260505212833 59 262 0.0 2.0 0.00 0.00 0.00 40 1007.0
20260505212333 59 261 0.0 2.0 0.00 0.00 0.00 39 1007.0
20260505211833 58 261 0.0 2.0 0.00 0.00 0.00 42 1007.1
20260505211333 58 264 0.0 1.0 0.00 0.00 0.00 42 1007.1
20260505210833 58 267 0.0 3.0 0.00 0.00 0.00 38 1007.1
20260505210333 58 272 0.0 3.0 0.00 0.00 0.00 37 1007.0
20260505205833 58 269 0.0 4.0 0.00 0.00 0.00 38 1007.0
20260505205333 59 273 0.0 4.0 0.00 0.00 0.00 39 1007.1
20260505204833 59 271 0.0 4.0 0.00 0.00 0.00 38 1007.2
20260505204333 59 291 1.0 4.0 0.00 0.00 0.00 39 1007.2
20260505203833 59 254 0.0 2.0 0.00 0.00 0.00 42 1007.1
20260505203333 59 230 0.0 2.0 0.00 0.00 0.00 38 1007.1
20260505202833 59 261 0.0 3.0 0.00 0.00 0.00 39 1007.3
20260505202333 59 261 0.0 4.0 0.00 0.00 0.00 41 1007.4
20260505201833 59 267 0.0 4.0 0.00 0.00 0.00 37 1007.4
20260505201333 59 271 0.0 3.0 0.00 0.00 0.00 37 1007.4
20260505200833 59 270 0.0 3.0 0.00 0.00 0.00 37 1007.3
20260505200333 59 269 1.0 4.0 0.00 0.00 0.00 38 1007.2
20260505195833 59 259 1.0 4.0 0.00 0.00 0.00 36 1007.3
20260505195333 60 235 1.0 4.0 0.00 0.00 0.00 37 1007.2
20260505194833 60 271 0.0 2.0 0.00 0.00 0.00 41 1007.1
20260505194333 60 187 0.0 2.0 0.00 0.00 0.00 38 1007.2
20260505193833 59 187 0.0 2.0 0.00 0.00 0.00 40 1007.3
20260505193333 59 257 0.0 2.0 0.00 0.00 0.00 39 1007.4
20260505192833 59 259 0.0 3.0 0.00 0.00 0.00 40 1007.5
20260505192333 59 265 0.0 4.0 0.00 0.00 0.00 40 1007.6
20260505191833 59 276 1.0 6.0 0.00 0.00 0.00 40 1007.6
20260505191333 59 285 0.0 6.0 0.00 0.00 0.00 42 1007.5
20260505190833 59 223 0.0 3.0 0.00 0.00 0.00 43 1007.5
20260505190333 58 198 1.0 3.0 0.00 0.00 0.00 42 1007.4
20260505185833 58 282 0.0 2.0 0.00 0.00 0.00 41 1007.6
20260505185333 59 281 1.0 6.0 0.00 0.00 0.00 43 1007.6
20260505184833 59 287 1.0 6.0 0.00 0.00 0.00 43 1007.6
20260505184333 59 294 0.0 5.0 0.00 0.00 0.00 42 1007.6
20260505183833 59 269 1.0 5.0 0.00 0.00 0.00 42 1007.6
20260505183333 59 196 0.0 4.0 0.00 0.00 0.00 40 1007.6
20260505182833 59 235 1.0 4.0 0.00 0.00 0.00 41 1007.6
20260505182333 59 244 1.0 4.0 0.00 0.00 0.00 42 1007.6
20260505181833 59 248 1.0 4.0 0.00 0.00 0.00 41 1007.4
20260505181333 59 273 0.0 4.0 0.00 0.00 0.00 43 1007.4
20260505180833 59 253 1.0 4.0 0.00 0.00 0.00 40 1007.3
20260505180333 59 264 0.0 3.0 0.00 0.00 0.00 41 1007.3
20260505175833 59 296 0.0 3.0 0.00 0.00 0.00 41 1007.1
20260505175333 59 282 1.0 3.0 0.00 0.00 0.00 44 1007.2
20260505174833 59 284 1.0 4.0 0.00 0.00 0.00 42 1007.1
20260505174333 59 285 1.0 4.0 0.00 0.00 0.00 41 1007.1
20260505173833 60 271 1.0 4.0 0.00 0.00 0.00 38 1007.2
20260505173333 60 278 1.0 4.0 0.00 0.00 0.00 40 1007.2
20260505172833 60 269 0.0 4.0 0.00 0.00 0.00 42 1007.1
20260505172333 60 220 1.0 4.0 0.00 0.00 0.00 39 1007.2
20260505171833 60 301 1.0 3.0 0.00 0.00 0.00 42 1007.1
20260505171333 59 285 1.0 3.0 0.00 0.00 0.00 42 1007.1
20260505170833 59 269 1.0 3.0 0.00 0.00 0.00 42 1007.1
20260505170333 59 291 1.0 4.0 0.00 0.00 0.00 41 1006.9
20260505165833 60 287 1.0 4.0 0.00 0.00 0.00 44 1007.0
20260505165333 60 249 1.0 3.0 0.00 0.00 0.00 46 1007.2
20260505164833 59 287 0.0 3.0 0.00 0.00 0.00 47 1007.3
20260505164333 59 230 1.0 3.0 0.00 0.00 0.00 44 1007.2
20260505163833 59 272 0.0 2.0 0.00 0.00 0.00 44 1007.2
20260505163333 58 242 0.0 3.0 0.00 0.00 0.00 45 1007.1
20260505162833 58 274 0.0 4.0 0.00 0.00 0.00 46 1007.0
20260505162333 58 265 1.0 4.0 0.00 0.00 0.00 45 1007.1
20260505161833 58 270 0.0 5.0 0.00 0.00 0.00 42 1007.0
20260505161333 58 290 1.0 5.0 0.00 0.00 0.00 45 1006.9
20260505160833 58 263 1.0 3.0 0.00 0.00 0.00 45 1007.2
20260505160333 58 274 1.0 3.0 0.00 0.00 0.00 45 1007.1
20260505153333 56 278 0.0 2.0 0.00 0.00 0.00 48 1006.6
20260505152833 55 303 0.0 4.0 0.00 0.00 0.00 48 1006.9
20260505152333 55 269 1.0 4.0 0.00 0.00 0.00 46 1006.9
20260505151833 55 286 1.0 3.0 0.00 0.00 0.00 48 1007.0
20260505151333 55 284 0.0 3.0 0.00 0.00 0.00 50 1007.0
20260505150833 55 260 0.0 3.0 0.00 0.00 0.00 49 1007.1
20260505150333 55 253 0.0 2.0 0.00 0.00 0.00 48 1006.8
20260505140333 52 0 0.0 0.0 0.00 0.00 0.00 50 1007.8